(11529) = 1982 YX3 = 1992 BJ1 = 1995 UX8

Discovered at Kushiro on 1992-01-28 by S. Ueda and H. Kaneda.

Orbit

Orbit type: Main Belt

Note: WebGL enabled browser required.

epoch2024-03-31.0
epoch JD2460400.5
perihelion date2022-06-15.29104
perihelion JD2459745.79104
argument of perihelion (°)2.63440
ascending node (°)77.98789
inclination (°)3.93955
eccentricity0.2449918
perihelion distance (AU)2.0265925
Tisserand w.r.t. Jupiter3.3
ΔV w.r.t. Earth (km/sec)9.1
semimajor axis (AU)2.6841995
mean anomaly (°)146.73373
mean daily motion (°/day)0.22412050
aphelion distance (AU)3.342
period (years)4.4
P-vector [x]0.16304842
P-vector [y]0.90394363
P-vector [z]0.39534937
Q-vector [x]-0.98432689
Q-vector [y]0.12174583
Q-vector [z]0.12758736
absolute magnitude14.28
phase slope0.15
uncertainty0
referenceMPEC 2024-F28
observations used3568
oppositions21
arc length (days)14776
first opposition used1982
last opposition used2023
residual rms (arc-secs)0.48
perturbers coarse indicatorM-v
perturbers precise indicator003Ek
first observation date used1982-12-23.0
last observation date used2023-06-08.0
computer nameMPCLINUX
JD of orbit computation2456966.802693
perihelion JD uncertainty (days)4.6798E-05
argument of perihelion uncertainty (°)7.1705E-05
ascending node uncertainty (°)7.0815E-05
inclination uncertainty (°)3.8676E-06
eccentricity uncertainty 3.3875E-08
perihelion distance uncertainty (AU)8.9878E-08
Minimum Orbit Intersection Distances (in AU)
for orbit epoch: 2460400.5, reference: E2024-FA5
Mercury1.71971
Venus1.30632
Earth1.04277
Mars0.45518
Jupiter1.91985
Saturn6.73007
Uranus15.6349
Neptune27.1015

Observations

3620 total observations over interval: 1982 12 23.94810 – 2023 06 08.184746
These data are available for download (format description).

Date (UT) J2000 RA J2000 Dec Magn Location Ref
1982 12 23.94810 06 07 13.49 +25 12 06.0 16.5   095 – Crimea-Nauchnyi MPC 13510
1988 03 18.42309 12 35 11.18 +02 45 42.2   675 – Palomar Mountain MPC 29751
1992 01 28.53056 09 10 50.59 +22 13 20.5 17   399 – Kushiro MPC 19744
1992 01 28.54549 09 10 49.64 +22 13 25.6   399 – Kushiro MPC 19744
1992 01 29.44774 09 09 58.08 +22 18 33.3 16.5   675 – Palomar Mountain MPC 19769
1992 01 29.47222 09 09 56.68 +22 18 39.3   675 – Palomar Mountain MPC 19769
1992 01 29.51736 09 09 54.50 +22 18 55.8 17.5   399 – Kushiro MPC 19744
1992 01 29.53229 09 09 53.46 +22 19 00.1   399 – Kushiro MPC 19744
1992 01 31.45156 09 08 03.36 +22 29 40.2   675 – Palomar Mountain MPC 19769
1992 01 31.47431 09 08 01.93 +22 29 46.1   675 – Palomar Mountain MPC 19769
1992 02 05.48333 09 03 15.08 +22 55 34.8 17   399 – Kushiro MPC 19744
1992 02 05.49826 09 03 14.07 +22 55 39.3   399 – Kushiro MPC 19744
1992 02 08.59410 09 00 19.82 +23 09 54.1 17   399 – Kushiro MPC 19744
1992 02 08.60938 09 00 18.91 +23 10 02.0   399 – Kushiro MPC 19745
1995 10 18.45114 03 34 03.39 +14 51 19.7 16.7 V 691 – Steward Observatory, Kitt Peak-Spacewatch MPS 32638
1995 10 18.47660 03 34 02.68 +14 51 18.5 16.7 V 691 – Steward Observatory, Kitt Peak-Spacewatch MPS 32638
1995 10 18.50601 03 34 01.82 +14 51 17.7 16.5 V 691 – Steward Observatory, Kitt Peak-Spacewatch MPS 32638
1995 10 20.45075 03 33 08.46 +14 49 45.6 16.6 V 691 – Steward Observatory, Kitt Peak-Spacewatch MPS 32638
1995 10 20.47430 03 33 07.69 +14 49 45.0 16.2 V 691 – Steward Observatory, Kitt Peak-Spacewatch MPS 32638
1995 10 20.49757 03 33 07.05 +14 49 44.2 16.3 V 691 – Steward Observatory, Kitt Peak-Spacewatch MPS 32638
1995 10 28.61389 03 28 11.07 +14 41 21.5 16.5   400 – Kitami MPC 26027
1995 10 28.63472 03 28 10.04 +14 41 19.2   400 – Kitami MPC 26027
1995 10 30.63125 03 26 41.43 +14 38 56.6 16.7   400 – Kitami MPC 26027
1995 10 30.65000 03 26 40.44 +14 38 52.4   400 – Kitami MPC 26027
1995 11 13.55486 03 14 32.49 +14 21 30.5 17.0   894 – Kiyosato MPC 26371
1995 11 13.56667 03 14 31.77 +14 21 28.2   894 – Kiyosato MPC 26371
1995 11 16.07441 03 12 10.86 +14 18 54.3   808 – El Leoncito MPS 185
1995 11 16.11389 03 12 08.53 +14 18 48.6   808 – El Leoncito MPS 185
1995 11 16.68924 03 11 35.81 +14 18 06.8   894 – Kiyosato MPC 26371
1995 11 16.70243 03 11 34.85 +14 18 05.4   894 – Kiyosato MPC 26371
1995 12 18.06259 02 51 08.77 +14 33 42.8   801 – Oak Ridge Observatory MPC 26360
1995 12 18.10372 02 51 08.18 +14 33 48.7   801 – Oak Ridge Observatory MPC 26360
1995 12 23.06491 02 50 36.18 +14 47 46.7   801 – Oak Ridge Observatory MPC 26360
1995 12 23.11546 02 50 36.04 +14 47 56.1   801 – Oak Ridge Observatory MPC 26360
1996 01 24.08650 03 07 31.51 +17 27 32.8   691 – Steward Observatory, Kitt Peak-Spacewatch MPC 26662
1996 01 24.10829 03 07 32.82 +17 27 40.2 17.9 V 691 – Steward Observatory, Kitt Peak-Spacewatch MPC 26662
1996 01 24.13031 03 07 34.12 +17 27 49.0   691 – Steward Observatory, Kitt Peak-Spacewatch MPC 26662
1999 08 12.32922 23 44 44.96 -08 09 33.5 18.3 R 699 – Lowell Observatory-LONEOS MPS 5823
1999 08 12.35723 23 44 44.33 -08 09 40.2   699 – Lowell Observatory-LONEOS MPS 5823
1999 08 12.38525 23 44 43.63 -08 09 48.4   699 – Lowell Observatory-LONEOS MPS 5823
1999 09 07.34485 23 27 57.74 -10 33 09.8 17.6   704 – Lincoln Laboratory ETS, New Mexico MPS 5988
1999 09 07.35665 23 27 57.11 -10 33 13.1 18.7   704 – Lincoln Laboratory ETS, New Mexico MPS 5988
1999 09 07.36850 23 27 56.53 -10 33 19.0 19.6   704 – Lincoln Laboratory ETS, New Mexico MPS 5989
1999 09 07.38045 23 27 55.84 -10 33 22.3 18.0   704 – Lincoln Laboratory ETS, New Mexico MPS 5989
1999 09 07.39210 23 27 55.22 -10 33 26.4 17.9   704 – Lincoln Laboratory ETS, New Mexico MPS 5989
1999 09 09.41167 23 26 10.76 -10 45 24.2 18.0   704 – Lincoln Laboratory ETS, New Mexico MPS 5989
1999 09 09.42520 23 26 10.05 -10 45 27.6 18.4   704 – Lincoln Laboratory ETS, New Mexico MPS 5989
1999 09 09.43885 23 26 09.32 -10 45 32.1 18.3   704 – Lincoln Laboratory ETS, New Mexico MPS 5989
1999 09 09.45241 23 26 08.65 -10 45 36.7 18.5   704 – Lincoln Laboratory ETS, New Mexico MPS 5989
1999 09 09.46588 23 26 08.00 -10 45 40.2 18.7   704 – Lincoln Laboratory ETS, New Mexico MPS 5989
1999 09 13.28125 23 22 46.65 -11 07 44.9 18.1   704 – Lincoln Laboratory ETS, New Mexico MPS 5989
1999 09 13.29235 23 22 46.00 -11 07 49.0 18.2   704 – Lincoln Laboratory ETS, New Mexico MPS 5989
1999 09 13.30376 23 22 45.38 -11 07 53.6 18.7   704 – Lincoln Laboratory ETS, New Mexico MPS 5989
1999 09 13.31521 23 22 44.72 -11 07 56.6 18.4   704 – Lincoln Laboratory ETS, New Mexico MPS 5989
1999 09 30.27170 23 08 17.22 -12 27 28.9 18.0   704 – Lincoln Laboratory ETS, New Mexico MPS 7199
1999 09 30.28434 23 08 16.54 -12 27 32.2 18.3   704 – Lincoln Laboratory ETS, New Mexico MPS 7199
1999 09 30.29700 23 08 15.96 -12 27 34.0 18.3   704 – Lincoln Laboratory ETS, New Mexico MPS 7199
1999 09 30.30986 23 08 15.36 -12 27 36.9 19.3   704 – Lincoln Laboratory ETS, New Mexico MPS 7199
1999 09 30.32246 23 08 14.73 -12 27 40.1 18.8   704 – Lincoln Laboratory ETS, New Mexico MPS 7199
1999 10 07.25140 23 03 22.11 -12 47 15.3 18.3   704 – Lincoln Laboratory ETS, New Mexico MPS 7199
1999 10 07.26287 23 03 21.61 -12 47 15.9 18.5   704 – Lincoln Laboratory ETS, New Mexico MPS 7199
1999 10 07.27451 23 03 21.16 -12 47 18.8 18.8   704 – Lincoln Laboratory ETS, New Mexico MPS 7199
1999 10 07.28644 23 03 20.66 -12 47 19.1 19.0   704 – Lincoln Laboratory ETS, New Mexico MPS 7199
1999 10 07.29802 23 03 20.25 -12 47 21.0 18.7   704 – Lincoln Laboratory ETS, New Mexico MPS 7199
1999 10 16.17780 22 58 38.91 -12 58 51.4 18.5   704 – Lincoln Laboratory ETS, New Mexico MPS 7199
1999 10 16.19549 22 58 38.38 -12 58 50.8 18.7   704 – Lincoln Laboratory ETS, New Mexico MPS 7199
1999 10 16.21136 22 58 37.95 -12 58 51.1 18.5   704 – Lincoln Laboratory ETS, New Mexico MPS 7199
1999 10 16.22849 22 58 37.51 -12 58 51.7 18.5   704 – Lincoln Laboratory ETS, New Mexico MPS 7199
1999 10 16.24548 22 58 37.02 -12 58 52.3 18.8   704 – Lincoln Laboratory ETS, New Mexico MPS 7199
2000 12 24.48759 11 29 34.06 +08 09 48.4 18.0 R 699 – Lowell Observatory-LONEOS MPS 24567
2000 12 24.50631 11 29 34.90 +08 09 45.8   699 – Lowell Observatory-LONEOS MPS 24567
2000 12 24.52508 11 29 35.66 +08 09 43.4   699 – Lowell Observatory-LONEOS MPS 24567
2000 12 24.54385 11 29 36.42 +08 09 40.9   699 – Lowell Observatory-LONEOS MPS 24567
2000 12 28.45738 11 32 15.10 +08 02 42.7 17.9   704 – Lincoln Laboratory ETS, New Mexico MPS 24567
2000 12 28.47242 11 32 15.65 +08 02 41.2 18.3   704 – Lincoln Laboratory ETS, New Mexico MPS 24567
2000 12 28.48746 11 32 16.11 +08 02 40.9 18.8   704 – Lincoln Laboratory ETS, New Mexico MPS 24567
2000 12 28.50251 11 32 16.75 +08 02 39.8 19.0   704 – Lincoln Laboratory ETS, New Mexico MPS 24567
2000 12 28.51769 11 32 17.33 +08 02 36.9 18.8   704 – Lincoln Laboratory ETS, New Mexico MPS 24567
2001 01 04.45296 11 35 59.40 +07 56 54.3 18.2   704 – Lincoln Laboratory ETS, New Mexico MPS 24567
2001 01 04.46812 11 35 59.75 +07 56 54.1 18.5   704 – Lincoln Laboratory ETS, New Mexico MPS 24568
2001 01 04.48330 11 36 00.13 +07 56 53.6 18.7   704 – Lincoln Laboratory ETS, New Mexico MPS 24568
2001 01 04.49847 11 36 00.55 +07 56 53.9 18.9   704 – Lincoln Laboratory ETS, New Mexico MPS 24568
2001 01 04.51375 11 36 00.92 +07 56 53.9 18.1   704 – Lincoln Laboratory ETS, New Mexico MPS 24568
2001 01 19.41254 11 39 23.23 +08 14 28.2 18.5   704 – Lincoln Laboratory ETS, New Mexico MPS 26083
2001 01 19.42809 11 39 23.25 +08 14 29.9 19.5   704 – Lincoln Laboratory ETS, New Mexico MPS 26083
2001 01 19.44380 11 39 23.19 +08 14 33.8 18.6   704 – Lincoln Laboratory ETS, New Mexico MPS 26083
2001 01 19.46258 11 39 23.16 +08 14 36.8 19.0   704 – Lincoln Laboratory ETS, New Mexico MPS 26083
2001 01 19.47969 11 39 23.11 +08 14 39.8 18.5   704 – Lincoln Laboratory ETS, New Mexico MPS 26083
2001 01 31.39515 11 37 15.65 +08 57 37.7 17.3   704 – Lincoln Laboratory ETS, New Mexico MPS 26083
2001 01 31.41002 11 37 15.32 +08 57 42.2 17.6   704 – Lincoln Laboratory ETS, New Mexico MPS 26083
